Regional Weather Roundup
Issued by NWS

Home | Current Version | Previous Version | Graphics & Text | Print | Product List | Glossary On
Versions: 1 2 3 4 5 6 7 8 9 10 11 12 13 14 15 16 17 18 19 20 21 22 23 24 25 26 27 28 29 30 31 32 33 34 35 36 37 38 39 40 41 42 43 44 45 46 47 48 49 50
000
ASUS45 KBOU 180707
RWRCO

WEATHER ROUNDUP FOR COLORADO
NATIONAL WEATHER SERVICE DENVER/BOULDER CO
1200 AM MST THU DEC 18 2014

NOTE: "FAIR" INDICATES FEW OR NO CLOUDS BELOW 12000 FEET WITH NO
SIGNIFICANT WEATHER AND/OR OBSTRUCTIONS TO VISIBILITY.

COZ001>005-013-030-031-180800-
...NORTHWEST COLORADO...

CITY           SKY/WX    TMP DP  RH WIND       PRES   REMARKS
CRAIG          CLOUDY    26  25  96 SW3       30.06R FOG
HAYDEN         CLOUDY    27  23  86 W3        30.04S
MEEKER         FOG       27  25  92 CALM      30.04S VSB 1/4
MOUNT WERNER   NOT AVBL
STEAMBOAT SPGS CLOUDY    25  24  96 CALM      30.03S
WALDEN         CLOUDY    12   9  85 CALM      30.00S VSB 1/4
$$

COZ006>008-011-180800-
...WEST CENTRAL VALLEYS...

CITY           SKY/WX    TMP DP  RH WIND       PRES   REMARKS
GRAND JUNCTION LGT RAIN  34  34 100 N9        30.05S WCI  27
MONTROSE       LGT SNOW  32  32 100 CALM      30.07S FOG
EAGLE          CLOUDY    27  25  93 CALM      30.06S
RIFLE          CLOUDY    33  32  96 W3        30.04S
DELTA          DRIZZLE   37  36  94 CALM      30.06S
NUCLA          LGT SNOW  32  32 100 SE3       30.10S
$$

COZ017>023-064>068-180800-
...SOUTHWEST COLORADO...

CITY           SKY/WX    TMP DP  RH WIND       PRES   REMARKS
DURANGO        CLOUDY    30  28  92 SW12      30.06S WCI  20
CORTEZ         CLOUDY    33  32  96 CALM      30.09S
PAGOSA SPRINGS CLOUDY    31  31 100 SW3       30.05S
TELLURIDE      LGT SNOW  25  25  98 W5        30.04S WCI  20
WOLF CREEK PAS HVY SNOW  14  14 100 MISG      30.01F VSB 1/4
$$

COZ009-010-012-014-032>034-037-058>063-180800-
...CENTRAL COLORADO...

CITY           SKY/WX    TMP DP  RH WIND       PRES   REMARKS
ASPEN          LGT SNOW  27  25  92 CALM      30.00S FOG
BUENA VISTA    PTCLDY    18  15  87 CALM      29.99F
COPPER MTN     LGT SNOW  19  14  79 W13G20    29.98F WCI   7
BERTHOUD PASS  CLOUDY    10   5  79 MISG      29.97F
COTTONWOOD PAS PTCLDY    27  23  86 CALM      29.98F
GUNNISON       CLOUDY    25  19  80 CALM      30.05S
KREMMLING      LGT SNOW  19  18  93 CALM      30.04S
LEADVILLE      CLOUDY    12   9  87 NE5       29.97F WCI   4
MONARCH PASS   CLOUDY    16  12  86 MISG      30.08F
SALIDA         PTCLDY    26  21  82 S3        30.07S
SUNLIGHT       LGT SNOW N/A N/A N/A CALM      30.02S
WILKERSON PASS MOCLDY    18  16  93 W5        30.00S WCI  11
$$

COZ069>075-180800-
...SAN LUIS VALLEY/SANGRE DE CRISTO MOUNTAINS...

CITY           SKY/WX    TMP DP  RH WIND       PRES   REMARKS
ALAMOSA        CLOUDY    24  22  91 CALM      30.03S
LA VETA PASS   CLOUDY    21  19  93 MISG      29.97S FOG
SAGUACHE       MIX PCPN  27  27 100 CALM      30.03F
$$

COZ035-036-038>040-180800-
...NORTHERN COLORADO FRONT RANGE...

CITY           SKY/WX    TMP DP  RH WIND       PRES   REMARKS
DENVER INTL AP MOCLDY    28  24  85 W7        29.97F WCI  21
DMNS CITY PARK   N/A     30  27  87 S3        29.98S
AURORA         MOCLDY    28  26  91 S5        29.98S WCI  23
FRONT RANGE AP CLOUDY    32  30  93 SE5       29.98S WCI  27
ERIE MUNI ARPT   N/A     21  20  96 N3        29.99S FOG
BOULDER MUN AP PTCLDY    30  27  86 W3        29.97F
CENTENNIAL     PTCLDY    28  23  81 SW6       29.97S WCI  22
BROOMFIELD     PTCLDY    30  27  86 W5        29.98F WCI  25
FORT COLLINS   PTCLDY    25  19  80 E3        30.00F
LONGMONT       PTCLDY    23  20  89 CALM      30.01F
$$

COZ041-046-047-076>085-087-088-180800-
...PIKES PEAK/PALMER DIVIDE AND SOUTHERN FOOTHILLS...

CITY           SKY/WX    TMP DP  RH WIND       PRES   REMARKS
COLO. SPRINGS  LGT SNOW  29  27  92 CALM      30.00S FOG
A. F. ACADEMY  CLOUDY    28  28 100 CALM      29.98S
ELLICOTT       NOT AVBL
FALCON         FOG       28  27  99 CALM      29.99S VSB 3/4
FORT CARSON    LGT SNOW  27  26  96 NW3       29.99S VSB 1
LIMON          MOCLDY    18  16  92 NW5       29.99S WCI  11
MONUMENT HILL  FOG       25  25 100 S5        29.97S VSB 1/2 WCI  19
TRINIDAD       PTCLDY    25  21  85 NW8       29.99S WCI  16
$$

COZ042>045-048>051-090-091-180800-
...NORTHEAST COLORADO...

CITY           SKY/WX    TMP DP  RH WIND       PRES   REMARKS
GREELEY ARPT   PTCLDY    23  14  68 CALM      29.99F
AKRON          MOCLDY    16  15  96 SW7       29.98F WCI   6
BURLINGTON     CLOUDY    24  22  91 S3        30.03S
WRAY           NOT AVBL
STERLING       FOG       25  23  93 SW6       30.01F VSB 1/2 WCI  18
HOLYOKE        NOT AVBL
FORT MORGAN    CLOUDY    18  16  92 W6        30.00F WCI  10
$$

COZ086-089-092>099-180800-
...SOUTHEAST COLORADO...

CITY           SKY/WX    TMP DP  RH WIND       PRES   REMARKS
PUEBLO         CLOUDY    25  24  96 W5        30.03R WCI  19
LA JUNTA       CLOUDY    28  25  88 CALM      30.03F
LAMAR          CLOUDY    28  28 100 N6        30.03F FOG     WCI  22
SPRINGFIELD      N/A     26  25  96 NW12      29.99F WCI  16
$$


USA.gov is the U.S. government's official web portal to all federal, state and local government web resources and services.